Regional Weather Roundup
Issued by NWS

Home | Current Version | Previous Version | Graphics & Text | Print | Product List | Glossary Off
Versions: 1 2 3 4 5 6 7 8 9 10 11 12 13 14 15 16 17 18 19 20 21 22 23 24 25 26 27 28 29 30 31 32 33 34 35 36 37 38 39 40 41 42 43 44 45 46 47 48 49 50

000
ASUS45 KBOU 301507
RWRCO

WEATHER ROUNDUP FOR COLORADO
NATIONAL WEATHER SERVICE DENVER/BOULDER CO
900 AM MDT SUN APR 30 2017

NOTE: "FAIR" INDICATES FEW OR NO CLOUDS BELOW 12000 FEET WITH NO
SIGNIFICANT WEATHER AND/OR OBSTRUCTIONS TO VISIBILITY.

COZ001>005-013-030-031-301600-
...NORTHWEST COLORADO...

CITY           SKY/WX    TMP DP  RH WIND       PRES   REMARKS
CRAIG          FAIR      33  23  66 VRB3      30.19R
HAYDEN         FAIR      30  19  64 CALM      30.18S
MEEKER         FAIR      31  22  69 SE3       30.19S
MOUNT WERNER   NOT AVBL
STEAMBOAT SPGS FAIR      29  19  65 CALM      30.17S
WALDEN           N/A     23  16  74 W3        30.14S
$$

COZ006>008-011-301600-
...WEST CENTRAL VALLEYS...

CITY           SKY/WX    TMP DP  RH WIND       PRES   REMARKS
GRAND JUNCTION FAIR      44  18  35 CALM      30.18S
MONTROSE       FAIR      40  21  46 CALM      30.21R
EAGLE          MOSUNNY   34  19  55 CALM      30.19S
RIFLE          FAIR      36  23  59 CALM      30.20R
DELTA          PTSUNNY   41  20  43 NE5       30.20R
NUCLA          FAIR      41  16  36 CALM      30.21R
$$

COZ017>023-064>068-301600-
...SOUTHWEST COLORADO...

CITY           SKY/WX    TMP DP  RH WIND       PRES   REMARKS
DURANGO        FAIR      30  29  96 VRB3      30.06R
CORTEZ         FAIR      42  18  37 NW14G21   30.13R
PAGOSA SPRINGS FAIR      33  24  70 SW3       30.04S
TELLURIDE      FAIR      28  14  56 W6        30.16R WCI  22
WOLF CREEK PAS FAIR      19   5  53 N10       30.08R WCI   8
$$

COZ009-010-012-014-032>034-037-058>063-301600-
...CENTRAL COLORADO...

CITY           SKY/WX    TMP DP  RH WIND       PRES   REMARKS
ASPEN          FAIR      31  21  66 N9        30.14R WCI  23
BUENA VISTA    FAIR      33  11  39 NW25G33   30.01S WCI  20
COPPER MTN     PTSUNNY   14   9  79 MISG      30.06R HAZE
BERTHOUD PASS  FAIR       5  -6  61 N24G39    30.01R WCI -17
COTTONWOOD PAS FAIR      28  14  54 NW9G20    29.99F HAZE    WCI  20
GUNNISON       FAIR      34  13  41 SW13G21   30.10R WCI  25
KREMMLING      FAIR      34  23  64 CALM      30.16F
LEADVILLE      FAIR      21   6  52 N18G28    30.05R WCI   6
MONARCH PASS   PTSUNNY   12  10  92 W20G32    30.12S WCI  -6
SALIDA         FAIR      36  17  46 N6        30.07F
SUNLIGHT       FAIR      18  12  79 NW8       30.20R WCI   7
WILKERSON PASS FAIR      21  12  68 N13G20    29.98R WCI   9
$$

COZ069>075-301600-
...SAN LUIS VALLEY/SANGRE DE CRISTO MOUNTAINS...

CITY           SKY/WX    TMP DP  RH WIND       PRES   REMARKS
ALAMOSA        FAIR      37  20  50 N14G20    29.98F
LA VETA PASS   FAIR      25  18  74 SW13G22   30.04R WCI  13
SAGUACHE       FAIR      36  14  41 NW31G40   30.00S
$$

COZ035-036-038>040-301600-
...NORTHERN COLORADO FRONT RANGE...

CITY           SKY/WX    TMP DP  RH WIND       PRES   REMARKS
DENVER INTL AP PTSUNNY   34  20  56 N21       29.97F WCI  22
DMNS CITY PARK   N/A     38  17  42 NE6G16    29.99S
AURORA         NOT AVBL
FRONT RANGE AP PTSUNNY   34  25  69 N18       29.99S WCI  23
ERIE MUNI ARPT FAIR      34  22  61 CALM      29.99S
BOULDER MUN AP FAIR      36  19  51 CALM      29.98F
CENTENNIAL     PTSUNNY   32  18  56 N9        29.99R WCI  24
BROOMFIELD     PTSUNNY   32  19  59 CALM      29.99F
FORT COLLINS   FAIR      34  23  64 S7        29.98F WCI  28
LONGMONT       FAIR      37  23  57 SW5       30.00F
$$

COZ041-046-047-076>085-087-088-301600-
...PIKES PEAK/PALMER DIVIDE AND SOUTHERN FOOTHILLS...

CITY           SKY/WX    TMP DP  RH WIND       PRES   REMARKS
COLO. SPRINGS  PTSUNNY   35  12  38 N20G31    29.95R WCI  24
A. F. ACADEMY  FAIR      31  11  44 NW29G36   29.94R WCI  16
SCHRIEVER AFB  FAIR      31  15  50 N18G31    29.95R WCI  19
ELLICOTT       FAIR     N/A N/A N/A N21G29    29.91R
FALCON         FAIR      30  12  47 N21G31    29.94R WCI  17
FORT CARSON    FAIR      36  14  41 N21G28    29.95R
LIMON          FAIR      31  22  69 N31G44    29.89S WCI  16
MONUMENT HILL  FAIR      27  14  59 N17G28    29.97R WCI  14
TRINIDAD       FAIR      30  17  58 NW12      29.97R WCI  20
$$

COZ042>045-048>051-090-091-301600-
...NORTHEAST COLORADO...

CITY           SKY/WX    TMP DP  RH WIND       PRES   REMARKS
GREELEY ARPT   FAIR      40  22  48 N6        30.01S
AKRON          FAIR      37  21  52 N29G36    29.91S
BURLINGTON     NOT AVBL
WRAY           NOT AVBL
STERLING       FAIR      41  25  52 N26G35    29.92F
HOLYOKE        FAIR      39  27  60 N24G37    29.86S
FORT MORGAN    FAIR      41  19  42 N30G37    29.97S
$$

COZ086-089-092>099-301600-
...SOUTHEAST COLORADO...

CITY           SKY/WX    TMP DP  RH WIND       PRES   REMARKS
PUEBLO         FAIR      38  20  48 N15       29.98R
LA JUNTA       CLOUDY    37  26  64 NW20      29.94R
LAMAR          CLOUDY    36  28  73 NW17G33   29.85S
SPRINGFIELD      N/A     30  30 100 NW44G56   29.79F WCI  12
$$



USA.gov is the U.S. government's official web portal to all federal, state and local government web resources and services.